USA 115 (MILSTAR-1 2)

Last updated on Sat Aug 15 2026 00:02:56 GMT+0000 (Coordinated Universal Time)

1 23712U 95060A 26226.37891860 -.00000215 00000+0 00000+0 0 9992 2 23712 14.0936 3.3067 0006226 137.1123 228.8089 1.00270792 33475
UTC large
Height (km)
Speed (km/s)
/
Latitude / Longitude
Inclination (degrees)
Orbital Period (minutes)
Azimuth
Elevation
Range (km)
Doppler Factor

Next 0 passes for location: London (51.5072 / 0.1276)

No passes found over London.
USA 115 (MILSTAR-1 2)